Grand Forks, ND

5:57 AM CDT on May 25, 2017 (GMT -0500)
Grand Forks International

Weather History for KGFK - January, 2014

Change the Weather History Date:

Saturday, January 4, 2014

  Actual Average Record
Temperature  
Mean Temperature -4 °F 7 °F  
Max Temperature 10 °F 16 °F 43 °F (2007)
Min Temperature -18 °F -2 °F -33 °F (1968)
Degree Days  
Heating Degree Days 69 58  
Month to date heating degree days 291 232  
Since 1 July heating degree days 4410 4091  
Cooling Degree Days 0 0  
Month to date cooling degree days 0 0  
Year to date cooling degree days 0 0  
Moisture  
Dew Point -7 °F    
Average Humidity 74    
Maximum Humidity 88    
Minimum Humidity 59    
Precipitation  
Precipitation T in 0.02 in 0.31 in (1962)
Month to date precipitation 0.09 0.08  
Year to date precipitation 0.09 0.08  
Snow  
Snow T in 0.40 in 3.10 in (1962)
Month to date snowfall 1.4 1.5  
Since 1 July snowfall 25.8 21.4  
Snow Depth 10.00 in    
Sea Level Pressure  
Sea Level Pressure 29.98 in    
Wind  
Wind Speed 16 mph (NW)    
Max Wind Speed 33 mph    
Max Gust Speed 40 mph    
Visibility 7 miles    
Events Fog , Snow    
T = Trace of Precipitation, MM = Missing Value Source: NWS Daily Summary

Daily Weather History Graph

Daily Weather History Graph

Search for Another Location

Airport or City:

Trip Planner

Search our weather history database for the weather conditions in past years. The results will help you decide how hot, cold, wet, or windy it might be!

Date:

Astronomy

Jan. 04, 2014 Rise Set
Actual Time 8:18 AM CST 4:49 PM CST
Civil Twilight 7:42 AM CST 5:25 PM CST
Nautical Twilight 7:02 AM CST 6:04 PM CST
Astronomical Twilight 6:25 AM CST 6:42 PM CST
Moon 10:05 AM CST (1/4) 9:31 PM CST (1/4)
Length of Visible Light 9h 43m
Length of Day
8h 31m
Waxing Crescent, 15% of the Moon is Illuminated
Jan 4
Waxing Crescent
Jan 7
First Quarter
Jan 15
Full
Jan 23
Last Quarter
Jan 30
New

Hourly Weather History & Observations

Time (CST) Temp. Windchill Dew Point Humidity Pressure Visibility Wind Dir Wind Speed Gust Speed Precip Events Conditions
12:01 AM 6.8 °F -16.9 °F 3.2 °F 85% 29.58 in 0.5 mi NNW 31.1 mph 40.3 mph 0.00 in Fog , Snow Snow
12:34 AM 8.6 °F -13.4 °F 3.2 °F 79% 29.61 in 0.8 mi North 27.6 mph 35.7 mph 0.00 in Snow Light Snow
12:53 AM 9.0 °F -12.2 °F 5.0 °F 84% 29.69 in 0.8 mi North 25.3 mph 36.8 mph 0.00 in Snow Light Snow
1:03 AM 8.6 °F -13.8 °F 5.0 °F 85% 29.64 in 1.2 mi NNW 28.8 mph 38.0 mph 0.00 in Snow Blowing Snow
1:20 AM 8.6 °F -11.4 °F 5.0 °F 85% 29.65 in 2.5 mi NNW 21.9 mph - 0.00 in Snow Light Snow
1:33 AM 10.4 °F -11.4 °F 5.0 °F 79% 29.66 in 1.2 mi NNW 28.8 mph 33.4 mph 0.00 in Snow Light Snow
1:50 AM 10.4 °F -9.1 °F 5.0 °F 79% 29.68 in 2.5 mi NNW 21.9 mph 31.1 mph 0.00 in Snow Light Snow
1:53 AM 10.0 °F -10.4 °F 5.0 °F 80% 29.74 in 2.5 mi NNW 24.2 mph - 0.00 in Snow Light Snow
2:07 AM 10.4 °F -8.6 °F 6.8 °F 85% 29.70 in 4.0 mi NNW 20.7 mph 27.6 mph 0.00 in Snow Light Snow
2:41 AM 10.4 °F -9.5 °F 3.2 °F 73% 29.72 in 2.5 mi NNW 23.0 mph 35.7 mph 0.00 in Snow Light Snow
2:50 AM 8.6 °F -13.8 °F 1.4 °F 73% 29.73 in 3.0 mi North 28.8 mph 36.8 mph 0.00 in Snow Blowing Snow
2:53 AM 9.0 °F -13.3 °F 1.9 °F 73% 29.79 in 2.5 mi North 28.8 mph 36.8 mph 0.00 in   Mostly Cloudy
3:07 AM 8.6 °F -11.9 °F 1.4 °F 73% 29.76 in 6.0 mi NNW 23.0 mph - 0.00 in Snow Blowing Snow
3:53 AM 6.1 °F -11.6 °F -0.0 °F 76% 29.84 in 10.0 mi NNW 15.0 mph - 0.00 in   Mostly Cloudy
4:53 AM 5.0 °F -17.1 °F -0.9 °F 76% 29.90 in 5.0 mi NNW 24.2 mph - N/A Snow Blowing Snow
5:53 AM 1.0 °F -20.9 °F -6.0 °F 72% 29.97 in 10.0 mi North 20.7 mph - N/A   Overcast
6:53 AM -0.9 °F -22.4 °F -9.0 °F 69% 30.01 in 10.0 mi NNW 18.4 mph - N/A   Clear
7:53 AM -4.0 °F -23.7 °F -11.0 °F 72% 30.05 in 10.0 mi North 13.8 mph - N/A   Partly Cloudy
8:53 AM -7.1 °F -21.4 °F -13.0 °F 75% 30.08 in 10.0 mi NNW 6.9 mph - N/A   Clear
9:53 AM -5.1 °F -19.1 °F -11.9 °F 72% 30.12 in 10.0 mi WNW 6.9 mph - N/A   Scattered Clouds
10:53 AM -4.0 °F -25.2 °F -13.0 °F 65% 30.13 in 10.0 mi NW 16.1 mph - N/A   Clear
11:53 AM -4.0 °F -27.0 °F -14.1 °F 62% 30.15 in 10.0 mi NW 19.6 mph - N/A   Clear
12:53 PM -5.1 °F -26.6 °F -14.1 °F 65% 30.15 in 10.0 mi NW 16.1 mph - N/A   Partly Cloudy
1:53 PM -5.1 °F -27.8 °F -14.1 °F 65% 30.17 in 10.0 mi NW 18.4 mph - N/A   Partly Cloudy
2:53 PM -5.1 °F -26.6 °F -15.0 °F 62% 30.19 in 10.0 mi NW 16.1 mph - N/A   Partly Cloudy
3:53 PM -6.0 °F -29.0 °F -16.1 °F 62% 30.23 in 10.0 mi NW 18.4 mph - N/A   Clear
4:53 PM -8.0 °F -28.8 °F -17.0 °F 65% 30.26 in 10.0 mi NW 13.8 mph - N/A   Partly Cloudy
5:53 PM -9.9 °F -30.5 °F -18.0 °F 68% 30.29 in 10.0 mi WNW 12.7 mph - N/A   Clear
6:53 PM -9.9 °F -29.6 °F -18.9 °F 65% 30.30 in 10.0 mi NW 11.5 mph - N/A   Clear
7:53 PM -11.9 °F -31.0 °F -20.0 °F 67% 30.31 in 10.0 mi WNW 10.4 mph - N/A   Clear
8:53 PM -11.9 °F -27.3 °F -20.0 °F 67% 30.31 in 10.0 mi WNW 6.9 mph - N/A   Clear
9:53 PM -16.1 °F -35.0 °F -23.1 °F 71% 30.34 in 10.0 mi West 9.2 mph - N/A   Clear
10:53 PM -17.0 °F -37.3 °F -24.0 °F 70% 30.35 in 10.0 mi West 10.4 mph - N/A   Clear
11:53 PM -18.0 °F -37.5 °F -25.1 °F 70% 30.35 in 10.0 mi West 9.2 mph - N/A   Clear